GAOFEN 9 03

导读 | 豆包AI

高分九号03星(GAOFEN 9 03)是中国研制的光学遥感卫星,隶属于中国高分辨率对地观测系统重大专项,于2020年6月17日在酒泉卫星发射中心,通过长征二号丁运载火箭以"一箭三星"方式成功发射。该星地面像元分辨率最高可达亚米级,可服务于国土普查、城市规划、防灾减灾等领域,为"一带一路"建设提供信息支撑。

Basic Information
目录编号:
45794
目录名称:
GAOFEN 9 03
国际标识:
2020-039A
轨道中心:
EARTH
卫星名称:
GAOFEN 9 03
卫星全名:
--
卫星状态:
在轨 (已飞行2096 天)
发射日期:
2020-06-17 UTC
国别 :
中国 (CN)
星等 :
--
Orbit Information
数据来源 国际轨道数据
星历时间: 2026-03-13T21:47:13+0800
12小时前
查看轨道信息
半长轴: 6852.067km
偏心率: 0.0012963
轨道倾角: 97.522°
近地点辐角 65.948°
升交点赤经 204.926°
平近点角 294.311°
近地点: 465.047km
远地点: 482.813km
周期: 94.079分钟
每日圈数: 15.306308
Detailed Information
使用方式:
暂无
2D Orbit Map
3D Orbit Map
Orbit Altitude Analysis Chart
Orbit Inclination Analysis Chart
Orbit Comprehensive Analysis Chart
View Comprehensive Chart